Hourly Data Report for September 13, 2017

All times are specified in Local Standard Time (LST). Add 1 hour to adjust for Daylight Saving Time where and when it is observed.

WOODSTOCK NEWBRIDGE
NEW BRUNSWICK

46°09'08.000" N
67°32'34.000" W
154.00 m
8105603
71606
EWD

Download Data

Hourly Data (September 2017)
Hourly Data Report for September 13, 2017
Temp Definition
°C
Dew Point Temp Definition
°C
Rel Hum Definition
%
Wind Dir Definition
10's deg

Wind Spd Definition
km/h
Visibility Definition
km
Stn Press Definition
kPa
Hmdx Definition


Wind Chill Definition


Weather Definition


TIME
00:00 11.5 10.9 96 28 2   99.03     LegendNANA
01:00 10.2 9.5 95   0   99.04     LegendNANA
02:00 10.2 9.7 97   0   99.03     LegendNANA
03:00 9.0 8.2 95   0   99.03     LegendNANA
04:00 8.5 7.7 95   0   99.03     LegendNANA
05:00 7.9 7.4 96   0   99.06     LegendNANA
06:00 7.7 7.1 96   0   99.11     LegendNANA
07:00 9.3 8.8 97   0   99.18     LegendNANA
08:00 14.6 12.8 89   0   99.19     LegendNANA
09:00 16.5 12.0 75 25 7   99.19     LegendNANA
10:00 19.0 13.1 69 25 6   99.18     LegendNANA
11:00 21.4 12.6 57 26 7   99.15     LegendNANA
12:00 23.8 11.9 47 25 9   99.13 26   LegendNANA
13:00 25.1 10.2 39 25 12   99.08 26   LegendNANA
14:00 25.8 9.5 36 23 11   99.01 27   LegendNANA
15:00 26.1 9.3 35 23 10   98.95 27   LegendNANA
16:00 26.2 10.0 36 22 11   98.94 27   LegendNANA
17:00 25.3 11.1 41 22 9   98.94 27   LegendNANA
18:00 23.9 11.4 45 20 5   98.95 26   LegendNANA
19:00 19.3 11.4 61 17 2   98.96     LegendNANA
20:00 16.6 12.0 74   0   99.01     LegendNANA
21:00 15.8 11.8 77 17 5   99.03     LegendNANA
22:00 14.2 11.7 85   0   99.02     LegendNANA
23:00 12.6 10.6 88   0   99.04     LegendNANA

Notes on Data Quality.

Legend

  • E = Estimated
  • M = Missing
  • NA = Not Available
  • ‡ = Partner data that is not subject to review by the National Climate Archives
Date modified: